Location: Lugrin
(46.4033°N, 6.6674°E)
Time: 17:27:20
(UTC+00:00)

Meteor 2-13 Rocket - Pass Details

Date: 18 September 2020
Orbit: 936 x 958 km, 82.5° (Epoch: 29 October)

Event Time Altitude Azimuth Distance (km) Brightness Sun altitude
Rises 19:57:52 0° 349° (N) 3,651 8.1 -23.8°
Reaches altitude 10° 20:00:23 10° 349° (N) 2,700 7.3 -24.1°
Maximum altitude 20:06:34 80° 263° (W) 977 4.5 -25.1°
Enters shadow 20:09:03 39° 183° (S) 1,406 5.1 -25.4°
